www.pogodaiklimat.ru

Погода и климат >> Архив погоды >> Узбекистан >> Ташкент


АРХИВ ПОГОДЫ в Ташкенте

Время (UTC), дата Ветер
(напр.,м/с)
 
Видим.   Явления Облачность Т
(С)
Тd
(С)
f
(%)
Тe
(С)
Тes
(С)
Комфортность P
(гПа)
Po
(гПа)
Тmin
(С)
Tmax
(С)
R
(мм)
R24
(мм)
S
(см)
03 17.05 СВ 1 10 км 1/0
[Ci fib]
+25.8 +13.1 45 +28 +35 жарко 1006.1 952.0
06 17.05 З 2 10 км 9/8 1000 м
[Cb cap Ci fib]
+29.6 +14.0 39 +32 +35 душно 1008.1 954.6 +19.1 0.0
09 17.05 штиль 0 10 км 9/9 1000 м
[Cb cap]
+30.5 +13.1 34 +32 +34 жарко 1008.0 954.6
12 17.05 Ю 2 10 км 8/3 1000 м
[Cu hum Ac cast Ci fib]
+29.5 +13.9 38 +31 +33 жарко 1005.5 952.2
15 17.05 ЮВ 2 10 км 8/3 1000 м
[Sc Ac trans Ci fib]
+26.4 +15.2 50 +29 +29 жарко 1006.4 952.5 +31.3
18 17.05 ЮЗ 1 10 км 9/8 1000 м
[Cu Sc Ac lent]
+24.0 +14.8 56 +27 +27 жарко 1007.4 953.0 +31.3
21 17.05 СВ 3 10 км в посл. час ливневой дождь 9/9 1000 м
[Cb cap]
+22.0 +12.7 56 +25 +25 комфорт 1007.8 952.9
00 18.05 СВ 3 10 км в посл. час ливневой дождь 9/9 1000 м
[Cb cap]
+22.0 +12.7 56 +25 +25 комфорт 1007.8 952.9
03 18.05 ЮЗ 4 10 км гроза, ливневой дождь 10/8 1000 м
[Cb cap Ac und]
+18.9 +12.8 68 +20 +20 по сезону 1009.5 954.0
06 18.05 В 2 10 км слабый ливневой дождь {гроза} 9/6 1000 м
[Cb calv Ac lent]
+16.4 +15.2 93 +16 +19 очень
холодно
1014.1 957.9 +17.0 2
09 18.05 ЮВ 2 50 км {ливн. осадки} 6/4 1000 м
[Cu med, cong Ac lent]
+24.0 +12.7 49 +26 +33 жарко 1012.7 958.0
12 18.05 Ю 1 50 км {ливн. осадки} 6/3 1000 м
[Cu med, cong Ac lent Ci fib]
+24.2 +12.6 48 +26 +29 жарко 1012.5 957.8
15 18.05 ЮВ 2 10 км гроза без осадков 9/9 600 м
[Cb calv]
+21.5 +13.3 60 +24 +24 комфорт 1013.3 958.1 +24.4
18 18.05 В 2 10 км зарница {гроза, ливн. осадки} 3/0
[Ac lent]
+15.2 +14.1 93 +15 +15 прохладно 1016.8 960.3 +24.4 6
21 18.05 В 1 10 км 6/0
[Ac lent Ci fib]
+14.6 +13.1 91 +15 +15 по сезону 1016.6 959.9
00 19.05 В 1 10 км 3/0
[Ac lent]
+14.0 +12.9 93 +14 +14 по сезону 1016.7 959.9
03 19.05 В 1 10 км 3/0
[Ac lent]
+19.5 +14.5 73 +22 +28 комфорт 1016.6 960.9
06 19.05 С 1 10 км 10/6 600 м
[Cu hum]
+24.0 +12.9 50 +26 +30 жарко 1015.6 960.7 +13.7 6
09 19.05 СЗ 1 10 км 6/6 600 м
[Cu hum]
+27.2 +12.4 40 +29 +37 жарко 1014.3 960.1
12 19.05 С 1 10 км 3/3 600 м
[Cu hum]
+26.7 +9.5 34 +27 +31 жарко 1013.6 959.3
15 19.05 С 1 10 км 1/0
[Ac lent]
+22.2 +9.4 44 +24 +24 комфорт 1014.4 959.2 +27.5
18 19.05 СВ 1 10 км ясно +19.7 +13.6 68 +23 +23 комфорт 1014.8 959.2 +27.5
21 19.05 В 1 10 км ясно +16.2 +10.4 68 +17 +17 по сезону 1015.1 958.7
00 20.05 СВ 1 10 км 1/0
[Ac lent]
+15.0 +7.8 62 +16 +16 по сезону 1014.6 958.0
03 20.05 СВ 1 10 км 3/0
[Ci fib]
+22.0 +8.1 41 +23 +30 комфорт 1013.3 958.1
06 20.05 В 1 50 км ясно +28.3 +7.6 27 +28 +48 жарко 1011.9 957.9 +14.7
09 20.05 С 1 50 км 3/0
[Ci fib]
+29.8 +7.8 25 +29 +48 жарко 1010.4 956.7
12 20.05 З 1 50 км 3/0
[Ac lent]
+30.9 +9.3 26 +30 +35 жарко 1008.6 955.3
15 20.05 СВ 1 10 км ясно +24.0 +11.0 44 +25 +25 комфорт 1009.3 954.7 +31.1
18 20.05 В 1 10 км ясно +19.4 +12.4 64 +22 +22 комфорт 1009.6 954.2 +31.1
21 20.05 С 1 10 км ясно +16.6 +11.4 71 +17 +17 по сезону 1008.9 953.0
00 21.05 СВ 1 50 км 3/0
[Ci fib]
+16.8 +10.4 66 +18 +18 тепло 1008.2 952.3
03 21.05 СВ 1 50 км 4/0
[Ci fib]
+25.3 +10.2 39 +26 +33 жарко 1006.7 952.5
06 21.05 Ю 1 50 км 4/0
[Ci fib]
+30.2 +7.7 24 +29 +48 жарко 1005.2 951.9 +16.3
09 21.05 ЮЗ 2 50 км 3/0
[Ci fib]
+32.8 +8.1 22 +31 +48 жарко 1003.7 950.9
12 21.05 З 2 50 км 3/0
[Ci fib]
+32.8 +8.5 22 +31 +36 жарко 1002.5 949.7
15 21.05 С 2 10 км 1/0
[Ci fib]
+27.2 +12.0 39 +28 +28 жарко 1002.6 949.0 +33.6
18 21.05 В 1 10 км ясно +21.2 +15.0 68 +24 +24 комфорт 1003.4 948.7 +33.6
21 21.05 В 1 10 км ясно +21.2 +15.0 68 +24 +24 комфорт 1003.4 948.7 +33.6
00 22.05 В 1 50 км ясно +17.6 +9.2 58 +19 +19 тепло 1002.5 947.1
03 22.05 ЮВ 1 50 км ясно +26.2 +11.0 39 +27 +34 жарко 1002.5 948.6
06 22.05 СЗ 2 50 км ясно +32.6 +10.5 26 +32 +50 жарко 1005.0 947.8 +17.0
09 22.05 С 1 50 км 3/0
[Ci fib]
+34.8 +10.5 23 +34 +53 опасность
солнечного
удара
1000.0 947.8
12 22.05 З 2 50 км 8/0
[Ci fib]
+35.0 +8.4 20 +33 +38 жарко 999.7 947.5
15 22.05 ЮВ 1 10 км 6/0
[Ci fib]
+27.2 +12.2 39 +28 +28 жарко 1002.4 948.8 +26.0
18 22.05 В 2 10 км 8/0
[Ac lent Ci fib]
+24.5 +11.9 45 +26 +26 жарко 1004.1 949.9 +36.0
21 22.05 З 1 10 км 10/10
[Sc]
+24.8 +11.9 44 +26 +26 жарко 1004.7 950.5
00 23.05 ЮВ 2 10 км 8/6 1000 м
[Sc Ac lent Ci fib]
+25.0 +10.3 40 +26 +26 жарко 1007.0 952.7
03 23.05 СЗ 2 10 км 9/8 1000 м
[Cb calv Ac lent]
+25.0 +12.1 45 +27 +27 жарко 1010.8 956.3
06 23.05 В 1 10 км {ливн. осадки} 9/3 1000 м
[Cu hum Ac lent]
+29.0 +12.5 36 +30 +35 жарко 1010.7 956.9 +23.3
09 23.05 ЮЗ 1 10 км 8/3 1000 м
[Cu hum Ac lent Ci fib]
+30.2 +11.2 31 +31 +40 жарко 1010.7 957.1
12 23.05 штиль 0 10 км 3/1 1000 м
[Cu hum Ci fib]
+31.3 +9.9 27 +31 +37 жарко 1010.4 957.0
15 23.05 СВ 1 10 км ясно +25.7 +12.8 45 +28 +28 жарко 1011.0 956.7 +31.6
18 23.05 СЗ 1 10 км ясно +22.3 +13.7 58 +25 +25 комфорт 1011.6 956.6 +31.6 0.0
21 23.05 В 1 10 км ясно +19.4 +12.8 66 +22 +22 комфорт 1011.7 956.2

 

Местоположение метеостанции Ташкент (Ташкентская область, Узбекистан): широта 41.27 долгота 69.27 высота над уровнем моря 466 м.

В архиве по умолчанию представлена погода в Ташкенте за последнюю неделю. Архивные данные за месяц целиком и за предыдущие месяцы, начиная с января 2011 года, Вы можете получить, выбрав интересующий диапазон дат из раскрывающегося списка и нажав кнопку "Ввод!".

Внимание! Время в таблицах - всемирное. Для получения местного времени необходимо прибавить поправку, которая в Ташкенте равна 5 ч.

Смотрите также архив погоды в соседних городах и на ближайших метеорологических станциях:

Погода в Каунчи (Ташкентская область, Узбекистан) (31 км)
Погода в Туябугузе (Ташкентская область, Узбекистан) (37 км)
Погода в Келесе (Южно-Казахстанская область, Казахстан) (38 км)
Погода в Красноярской (Южно-Казахстанская область, Казахстан) (54 км)
Погода в Казыгурте (Южно-Казахстанская область, Казахстан) (55 км)
Погода в Дуканте (Ташкентская область, Узбекистан) (68 км)
Погода в Чимгане (Ташкентская область, Узбекистан) (70 км)
Погода в Сырдарье (Сырдарьинская область, Узбекистан) (70 км)
Погода в Ангрене (Ташкентская область, Узбекистан) (82 км)
Погода в Жетысае (Южно-Казахстанская область, Казахстан) (96 км)

Пояснения к столбцам:

Ветер - указаны скорость ветра в м/с - средняя за 10 мин, порывы в срок и между сроками (в фигурных скобках) и направление, откуда дует ветер: С - северный, СВ - северо-восточный, В - восточный, ЮВ - юго-восточный, Ю - южный, ЮЗ - юго-западный, З - западный, СЗ - северо-западный.
Видимость - горизонтальная дальность видимости в метрах или километрах. При видимости от 1 до 10 км при отсутствии осадков обычно наблюдается дымка, при ухудшении видимости до 1 км и менее - туман. В сухую погоду видимость может ухудшаться дымом, пылью или мглою.
Явления - указаны атмосферные явления, наблюдавшиеся в срок или в последний час перед сроком; фигурными скобками обозначены явления, наблюдавшиеся между сроками (за 1-3 часа до срока); квадратными скобками обозначены град или гололедные отложения с указанием их диаметра в мм.
Облачность - указаны через наклонную черту общая и нижняя облачность в баллах и высота нижней границы облаков в метрах; квадратными скобками обозначены формы облаков: Ci - перистые, Cs - перисто-слоистые, Cc - перисто-кучевые, Ac - высококучевые, As - высокослоистые, Sc - слоисто-кучевые, Ns - слоисто-дождевые, Cu - кучевые, Cb - кучево-дождевые. Подробнее классификацию облаков см. в Атласе облаков (PDF).
T - Температура воздуха - температура, измеренная на высоте 2 м над землей.
Td - Температура точки росы - температура, при понижении до которой содержащийся в воздухе водяной пар достигнет насыщения.
f - Относительная влажность воздуха - влажноcть воздуха, измеренная на высоте 2 м над землей.
Te - Эффективная температура - температура, которую ощущает одетый по сезону человек в тени. Характеристика душности погоды. При расчете учитывается влияние влажности воздуха и скорости ветра на теплоощущения человека.
Tes - Эффективная температура на солнце - температура, которую ощущает человек, с поправкой на солнечный нагрев. Характеристика знойности погоды. Зависит от высоты солнца над горизонтом, облачности и скорости ветра. Ночью, в пасмурную погоду, а также при ветре 12 м/с и более поправка равна нулю.
P - Атмосферное давление - приведенное к уровню моря атмосферное давление.
Po - Атмосферное давление - измеренное на уровне метеостанции атмосферное давление.
Tmin - Минимальная температура - минимум температуры воздуха на высоте 2 м над землей.
Tmax - Максимальная температура - максимум температуры воздуха на высоте 2 м над землей.
R - Количество осадков - Количество выпавших осадков за период времени, мм. При наведении курсора мыши на число - период времени, за который выпало указанное количество осадков.
R24 - Количество осадков - Количество выпавших осадков за 24 часа, мм.
S - Снежный покров - Высота снежного покрова, см. При наведении курсора мыши на число - состояние снежного покрова и степень покрытия местности в баллах.